Weather History for Fryeburg, ME

Change the Weather History Date:

Saturday, December 14, 2013

  Actual Average Record
Temperature  
Mean Temperature 2 °F -  
Max Temperature 14 °F 34 °F 53 °F (2006)
Min Temperature -9 °F 14 °F -9 °F (2003)
Degree Days  
Heating Degree Days 62    
Moisture  
Dew Point -5 °F    
Average Humidity 65    
Maximum Humidity 80    
Minimum Humidity 33    
Precipitation  
Precipitation 0.07 in - - ()
Sea Level Pressure  
Sea Level Pressure 30.50 in    
Wind  
Wind Speed 3 mph (NE)    
Max Wind Speed 9 mph    
Max Gust Speed -    
Visibility 7 miles    
Events Snow    
Averages and records for this station are not official NWS values.
T = Trace of Precipitation, MM = Missing Value Source: NWS Daily Summary

Daily Weather History Graph

Daily Weather History Graph

Search for Another Location

Airport:

Trip Planner

Search our weather history database for the weather conditions in past years. The results will help you decide how hot, cold, wet, or windy it might be!

Date:

Astronomy

Dec. 14, 2013 Rise Set
Actual Time 7:10 AM EST 4:06 PM EST
Civil Twilight 6:37 AM EST 4:39 PM EST
Nautical Twilight 6:01 AM EST 5:15 PM EST
Astronomical Twilight 5:26 AM EST 5:50 PM EST
Moon 2:29 PM EST (12/14) 4:24 AM EST (12/14)
Length of Visible Light 10h 01m
Length of Day
8h 55m
Waxing Gibbous, 93% of the Moon is Illuminated
Dec 14
Waxing Gibbous
Dec 17
Full
Dec 25
Last Quarter
Jan 1
New
Jan 7
First Quarter

Hourly Weather History & Observations

Time (EST) Temp. Windchill Dew Point Humidity Pressure Visibility Wind Dir Wind Speed Gust Speed Precip Events Conditions
12:54 AM -8.0 °F -16.9 °F -13.0 °F 79% 30.43 in 10.0 mi SW 3.5 mph - N/A   Clear
1:54 AM -8.0 °F - -13.0 °F 79% 30.46 in 10.0 mi Calm Calm - N/A   Clear
2:54 AM -7.1 °F -18.1 °F -13.0 °F 75% 30.47 in 10.0 mi NW 4.6 mph - N/A   Clear
3:54 AM -8.0 °F -16.9 °F -14.1 °F 75% 30.48 in 10.0 mi West 3.5 mph - N/A   Clear
4:54 AM -9.0 °F - -15.0 °F 75% 30.50 in 10.0 mi Calm Calm - N/A   Clear
5:54 AM -7.1 °F - -14.1 °F 72% 30.53 in 10.0 mi Calm Calm - N/A   Clear
6:54 AM -7.1 °F - -13.0 °F 75% 30.56 in 10.0 mi Calm Calm - N/A   Clear
7:54 AM -2.9 °F - -9.0 °F 75% 30.58 in 10.0 mi Calm Calm - N/A   Clear
8:54 AM 1.0 °F - -6.0 °F 72% 30.60 in 10.0 mi Calm Calm - N/A   Clear
9:54 AM 6.1 °F - -8.0 °F 53% 30.61 in 10.0 mi Calm Calm - N/A   Clear
10:54 AM 9.0 °F - -13.0 °F 36% 30.62 in 10.0 mi Calm Calm - N/A   Clear
11:54 AM 10.9 °F - -13.0 °F 33% 30.61 in 10.0 mi Calm Calm - N/A   Clear
12:54 PM 12.0 °F 1.5 °F -11.0 °F 35% 30.60 in 10.0 mi NE 6.9 mph - N/A   Clear
1:54 PM 14.0 °F 6.5 °F -8.0 °F 37% 30.59 in 10.0 mi ESE 4.6 mph - N/A   Scattered Clouds
2:54 PM 12.9 °F 5.2 °F -8.0 °F 39% 30.58 in 10.0 mi ESE 4.6 mph - N/A   Overcast
3:54 PM 12.0 °F 4.1 °F -9.9 °F 37% 30.59 in 10.0 mi SE 4.6 mph - N/A   Mostly Cloudy
4:54 PM 12.0 °F 4.1 °F -5.1 °F 46% 30.57 in 10.0 mi East 4.6 mph - N/A   Overcast
5:54 PM 12.0 °F 4.1 °F -4.0 °F 49% 30.55 in 10.0 mi ESE 4.6 mph - N/A   Overcast
6:54 PM 10.9 °F 4.7 °F -5.1 °F 49% 30.52 in 10.0 mi East 3.5 mph - N/A   Overcast
7:54 PM 10.9 °F - -5.1 °F 49% 30.53 in 10.0 mi Calm Calm - N/A   Overcast
8:41 PM 10.0 °F 1.8 °F -0.9 °F 61% 30.47 in 3.0 mi NNE 4.6 mph - 0.00 in Snow Light Snow
8:47 PM 10.0 °F 1.8 °F -0.0 °F 64% 30.47 in 1.8 mi NNE 4.6 mph - 0.00 in Snow Light Snow
8:54 PM 9.0 °F -0.9 °F 1.0 °F 70% 30.49 in 1.8 mi North 5.8 mph - 0.00 in Snow Light Snow
9:47 PM 9.0 °F 2.4 °F 3.9 °F 80% 30.44 in 1.2 mi NNE 3.5 mph - 0.01 in Snow Light Snow
9:54 PM 9.0 °F -0.9 °F 3.9 °F 80% 30.47 in 1.0 mi NNE 5.8 mph - 0.02 in Snow Light Snow
10:03 PM 9.0 °F -2.2 °F 3.9 °F 80% 30.43 in 0.8 mi NNE 6.9 mph - 0.00 in Snow Light Snow
10:11 PM 9.0 °F -4.2 °F 3.0 °F 77% 30.42 in 1.5 mi NNE 9.2 mph - 0.00 in Snow Light Snow
10:14 PM 9.0 °F -3.2 °F 3.0 °F 77% 30.42 in 2.0 mi NNE 8.1 mph - 0.00 in Snow Light Snow
10:28 PM 9.0 °F 0.6 °F 3.9 °F 80% 30.41 in 1.2 mi NNE 4.6 mph - 0.01 in Snow Light Snow
10:40 PM 8.1 °F -3.2 °F 3.0 °F 80% 30.41 in 1.0 mi North 6.9 mph - 0.01 in Snow Light Snow
10:54 PM 8.1 °F -4.3 °F 3.0 °F 80% 30.44 in 1.0 mi North 8.1 mph - 0.02 in Snow Light Snow
11:11 PM 8.1 °F -2.0 °F 3.0 °F 80% 30.39 in 0.8 mi North 5.8 mph - 0.01 in Snow Light Snow
11:54 PM 8.1 °F -3.2 °F 3.0 °F 80% 30.39 in 0.8 mi North 6.9 mph - 0.03 in Snow Light Snow